DL2GKM-6 Weather Reports


time (UTC)temp
C
wind
direction
speed
KPH
gust
KPH
rain 1hr
cm
rain 24hr
cm
rain mn
cm
humidity
%
barometer
mb
20260507144956 13 343 9.7 14.5 0.00 12.90 0.03 65 1014.0
20260507144539 13 25 9.7 6.4 0.00 12.90 0.03 65 1014.0
20260507144106 13 27 17.7 20.9 0.00 12.90 0.03 65 1014.0
20260507143608 13 11 11.3 14.5 0.00 12.90 0.03 65 1014.0
20260507143151 13 38 12.9 11.3 0.00 12.90 0.03 64 1014.0
20260507142716 14 18 14.5 11.3 0.00 12.90 0.03 62 1013.9
20260507142221 14 360 16.1 17.7 0.00 12.90 0.03 61 1014.0
20260507141736 15 339 9.7 11.3 0.00 12.90 0.03 60 1013.9
20260507141308 14 330 1.6 9.7 0.00 12.90 0.03 61 1013.9
20260507140856 14 17 11.3 17.7 0.00 12.90 0.03 62 1014.0
20260507140441 14 325 12.9 19.3 0.00 12.90 0.03 61 1013.9
20260507140036 14 360 14.5 12.9 0.00 12.90 0.03 61 1013.9
20260507135536 15 16 8.0 16.1 0.00 12.90 0.03 61 1013.8
20260507135127 15 25 14.5 14.5 0.00 12.90 0.03 60 1014.0
20260507134636 15 11 9.7 6.4 0.00 12.90 0.03 57 1013.9
20260507134221 15 7 4.8 1.6 0.00 12.90 0.03 56 1013.9
20260507133721 15 323 16.1 8.0 0.00 12.90 0.03 56 1014.0
20260507133223 15 326 8.0 8.0 0.00 12.90 0.03 55 1014.0
20260507132806 15 24 8.0 9.7 0.00 12.90 0.03 56 1014.0
20260507132326 15 308 9.7 9.7 0.00 12.90 0.03 58 1014.0
20260507131901 15 318 11.3 11.3 0.00 12.90 0.03 57 1014.0
20260507131456 15 287 16.1 20.9 0.00 12.90 0.03 58 1014.0
20260507131008 15 294 9.7 9.7 0.00 12.90 0.03 56 1013.9
20260507130526 15 288 9.7 3.2 0.00 12.90 0.03 58 1014.0
20260507130048 15 325 16.1 12.9 0.00 12.90 0.03 58 1013.9
20260507125548 15 360 8.0 11.3 0.00 12.90 0.03 57 1013.9
20260507125056 14 282 9.7 11.3 0.00 12.90 0.03 59 1013.9
20260507124646 14 319 14.5 12.9 0.00 12.90 0.03 58 1013.9
20260507124208 14 318 11.3 12.9 0.00 12.90 0.03 60 1013.9
20260507123806 14 333 20.9 17.7 0.00 12.90 0.03 60 1013.8
20260507123401 14 360 11.3 14.5 0.00 12.90 0.03 60 1013.9
20260507122936 14 339 11.3 16.1 0.00 12.90 0.03 60 1013.8
20260507122446 14 64 12.9 4.8 0.00 12.90 0.03 60 1013.8
20260507121956 14 25 4.8 4.8 0.00 12.90 0.03 63 1013.8
20260507121506 13 295 4.8 9.7 0.00 12.90 0.03 64 1013.9
20260507121026 13 319 8.0 8.0 0.00 12.90 0.03 64 1013.9
20260507120556 13 25 11.3 16.1 0.00 12.90 0.03 63 1013.8
20260507120056 13 360 14.5 8.0 0.00 12.90 0.03 63 1013.8
20260507115616 13 10 9.7 12.9 0.00 12.90 0.03 63 1013.8
20260507115156 14 30 14.5 3.2 0.00 12.90 0.03 63 1013.8
20260507114708 14 339 17.7 9.7 0.00 12.90 0.03 63 1013.8
20260507114216 14 3 8.0 9.7 0.00 12.90 0.03 63 1013.8
20260507113748 14 25 11.3 4.8 0.00 12.90 0.03 63 1013.8
20260507113251 14 13 9.7 12.9 0.00 12.90 0.03 64 1013.7
20260507112811 13 24 14.5 11.3 0.00 12.90 0.03 64 1013.8
20260507112406 13 13 14.5 8.0 0.00 12.90 0.03 65 1013.8
20260507111941 13 21 9.7 19.3 0.00 12.90 0.03 65 1013.9
20260507111448 13 30 14.5 12.9 0.00 12.90 0.03 65 1013.9
20260507111006 14 308 14.5 11.3 0.00 12.90 0.03 64 1013.9
20260507110511 14 17 12.9 11.3 0.00 12.90 0.03 64 1013.9
20260507110041 14 316 9.7 12.9 0.00 12.90 0.03 63 1013.9
20260507105546 15 282 8.0 8.0 0.00 12.90 0.03 62 1013.9
20260507105106 15 342 16.1 17.7 0.00 12.90 0.03 63 1013.9
20260507104646 15 274 6.4 4.8 0.00 12.90 0.03 62 1013.9
20260507104206 15 114 3.2 4.8 0.00 12.90 0.03 63 1013.9
20260507103736 14 353 6.4 3.2 0.00 12.90 0.03 65 1013.8
20260507103316 13 28 4.8 0.0 0.00 12.90 0.03 68 1013.9
20260507102848 13 315 3.2 8.0 0.00 12.90 0.03 70 1014.0
20260507102446 13 285 9.7 8.0 0.00 12.90 0.03 70 1014.0
20260507102046 13 28 9.7 6.4 0.00 12.90 0.03 69 1013.9
20260507101621 13 360 11.3 6.4 0.00 12.90 0.03 70 1013.9
20260507101121 13 23 3.2 11.3 0.00 12.90 0.03 70 1013.9
20260507100636 13 339 9.7 1.6 0.00 12.90 0.03 70 1013.9
20260507100136 13 357 11.3 8.0 0.00 12.90 0.03 69 1013.9
20260507095701 13 316 9.7 6.4 0.00 12.90 0.03 68 1013.9
20260507095238 14 27 6.4 4.8 0.00 12.90 0.03 65 1013.8
20260507094801 14 247 1.6 9.7 0.00 12.90 0.03 65 1013.9
20260507094321 14 304 6.4 17.7 0.00 12.90 0.03 66 1013.8
20260507093911 14 123 8.0 0.0 0.00 12.90 0.03 66 1013.8
20260507093411 14 323 6.4 9.7 0.00 12.90 0.03 68 1013.8
20260507092931 14 322 12.9 16.1 0.00 12.90 0.03 66 1013.8
20260507092516 13 337 0.0 4.8 0.00 12.90 0.03 68 1013.7
20260507092028 14 339 17.7 14.5 0.00 12.90 0.03 66 1013.7
20260507091556 13 357 9.7 12.9 0.00 12.90 0.03 72 1013.6
20260507091106 13 353 17.7 14.5 0.00 12.90 0.03 68 1013.6
20260507090636 13 316 9.7 9.7 0.00 12.90 0.03 72 1013.6
20260507090151 13 263 14.5 9.7 0.00 12.90 0.03 73 1013.6
20260507085751 13 320 6.4 9.7 0.00 12.90 0.03 77 1013.5
20260507085316 12 278 6.4 4.8 0.00 12.90 0.03 78 1013.4
20260507084856 12 320 11.3 11.3 0.00 12.90 0.03 79 1013.4
20260507084428 12 272 6.4 3.2 0.00 12.90 0.03 80 1013.4
20260507083928 12 295 3.2 8.0 0.00 12.90 0.03 81 1013.5
20260507083508 11 330 3.2 0.0 0.00 12.90 0.03 81 1013.5
20260507083016 11 144 0.0 3.2 0.00 12.90 0.03 81 1013.5
20260507082536 11 133 0.0 0.0 0.00 12.90 0.03 82 1013.5
20260507082048 11 332 8.0 4.8 0.00 12.90 0.03 81 1013.5
20260507081616 11 256 9.7 11.3 0.00 12.90 0.03 82 1013.5
20260507081141 11 236 8.0 0.0 0.00 12.90 0.03 83 1013.4
20260507080658 11 315 6.4 8.0 0.00 12.90 0.03 82 1013.4
20260507080256 11 219 3.2 0.0 0.00 12.90 0.03 84 1013.3
20260507075806 11 298 8.0 0.0 0.00 12.90 0.03 84 1013.3
20260507075328 11 151 6.4 9.7 0.00 12.90 0.03 84 1013.3
20260507074908 11 277 9.7 4.8 0.00 12.90 0.03 84 1013.2
20260507074408 11 328 4.8 4.8 0.00 12.90 0.03 85 1013.2
20260507074008 11 337 8.0 4.8 0.00 12.90 0.03 85 1013.2
20260507073558 11 21 4.8 12.9 0.00 12.90 0.03 86 1013.2
20260507073121 10 291 4.8 8.0 0.00 12.90 0.03 86 1013.2
20260507072646 10 299 0.0 0.0 0.00 12.90 0.03 86 1013.1
20260507072229 10 346 6.4 14.5 0.00 12.90 0.03 86 1013.1
20260507071756 10 295 6.4 1.6 0.00 12.90 0.03 86 1013.1
20260507071336 10 323 9.7 9.7 0.00 12.90 0.03 86 1013.0
20260507070856 10 18 4.8 8.0 0.00 12.90 0.03 87 1013.1
20260507070411 10 311 1.6 12.9 0.00 12.90 0.03 87 1013.0
20260507065931 10 318 4.8 9.7 0.00 12.90 0.03 87 1013.0
20260507065506 10 318 6.4 3.2 0.00 12.90 0.03 88 1013.0
20260507065036 10 325 6.4 11.3 0.00 12.90 0.03 88 1012.9
20260507064631 10 6 1.6 4.8 0.00 12.90 0.03 88 1012.9
20260507064151 10 263 1.6 0.0 0.00 12.90 0.03 88 1012.9
20260507063730 10 257 0.0 0.0 0.00 12.90 0.03 88 1012.8
20260507063328 10 237 6.4 0.0 0.00 12.90 0.03 88 1012.8
20260507062836 10 299 8.0 4.8 0.00 12.90 0.03 88 1012.7
20260507062408 9 287 3.2 3.2 0.00 12.90 0.03 88 1012.7
20260507061951 10 312 8.0 0.0 0.00 12.90 0.03 89 1012.7
20260507061512 9 315 4.8 14.5 0.00 12.90 0.03 89 1012.7
20260507061101 9 147 0.0 0.0 0.00 12.90 0.03 89 1012.7
20260507060628 9 343 3.2 0.0 0.00 12.90 0.03 88 1012.6
20260507060206 9 285 0.0 4.8 0.00 12.90 0.03 88 1012.6
20260507055721 9 313 0.0 0.0 0.00 12.90 0.03 88 1012.6
20260507055241 9 306 1.6 0.0 0.00 12.90 0.03 88 1012.5
20260507054820 9 278 3.2 4.8 0.00 12.90 0.03 88 1012.5
20260507054351 9 306 9.7 3.2 0.00 12.90 0.03 88 1012.5
20260507053908 9 344 0.0 0.0 0.00 12.90 0.03 88 1012.3
20260507053436 9 346 6.4 3.2 0.00 12.90 0.03 88 1012.3
20260507053006 8 213 11.3 14.5 0.00 12.90 0.03 89 1012.2
20260507052541 8 278 8.0 6.4 0.00 12.90 0.03 89 1012.1
20260507052106 8 267 8.0 8.0 0.00 12.90 0.03 88 1012.1
20260507051641 8 34 0.0 0.0 0.00 12.90 0.03 88 1012.0
20260507051201 8 213 8.0 0.0 0.00 12.90 0.03 88 1012.0
20260507050746 8 239 4.8 4.8 0.00 12.90 0.03 89 1011.9
20260507050301 8 148 6.4 3.2 0.00 12.90 0.03 89 1011.9
20260507045826 8 227 4.8 4.8 0.00 12.90 0.03 89 1011.9
20260507045356 8 349 0.0 0.0 0.00 12.90 0.03 89 1011.8
20260507044921 8 349 0.0 0.0 0.00 12.90 0.03 88 1011.8
20260507044448 8 0 0.0 0.0 0.00 12.90 0.03 88 1011.7
20260507044041 8 347 0.0 6.4 0.00 12.90 0.03 88 1011.7
20260507043626 8 344 0.0 0.0 0.00 12.90 0.03 88 1011.6
20260507043141 8 3 6.4 1.6 0.00 12.90 0.03 87 1011.5
20260507042726 9 104 0.0 0.0 0.00 12.90 0.03 87 1011.5
20260507042228 9 267 0.0 4.8 0.00 12.90 0.03 87 1011.4
20260507041806 9 150 0.0 0.0 0.00 12.90 0.03 86 1011.3
20260507041321 9 292 0.0 0.0 0.00 12.90 0.03 85 1011.3
20260507040836 9 323 0.0 4.8 0.00 12.90 0.03 85 1011.2
20260507040408 9 239 0.0 0.0 0.00 12.90 0.03 84 1011.2
20260507035911 10 308 0.0 0.0 0.00 12.90 0.03 84 1011.2
20260507035426 10 315 0.0 0.0 0.00 12.90 0.03 83 1011.1
20260507035026 10 288 3.2 0.0 0.00 12.90 0.03 83 1011.1
20260507034541 10 85 0.0 0.0 0.00 12.90 0.03 82 1011.1
20260507034106 10 85 0.0 0.0 0.00 12.90 0.03 82 1011.1
20260507033636 10 233 0.0 0.0 0.00 12.90 0.03 82 1011.0
20260507033206 10 233 1.6 0.0 0.00 12.90 0.03 82 1011.0
20260507032748 10 164 0.0 0.0 0.00 12.90 0.03 81 1010.9
20260507032256 10 216 0.0 0.0 0.00 12.90 0.03 81 1010.9
20260507031848 10 216 0.0 0.0 0.00 12.90 0.03 81 1010.9
20260507031431 10 216 0.0 0.0 0.00 12.90 0.03 81 1010.8
20260507030948 10 216 0.0 0.0 0.00 12.90 0.03 81 1010.8
20260507030526 10 219 8.0 6.4 0.00 12.90 0.03 81 1010.8
20260507030126 10 206 4.8 9.7 0.00 12.90 0.03 81 1010.8
20260507025656 10 205 0.0 0.0 0.00 12.90 0.03 81 1010.7
20260507025221 10 208 0.0 0.0 0.00 12.90 0.03 81 1010.7
20260507024741 10 253 12.9 12.9 0.00 12.90 0.03 81 1010.7
20260507024321 10 112 0.0 0.0 0.00 12.90 0.00 81 1010.7
20260507023916 10 199 1.6 0.0 0.00 12.90 0.00 81 1010.7
20260507023428 10 250 9.7 6.4 0.00 12.90 0.00 80 1010.7
20260507022946 10 104 14.5 4.8 0.00 12.90 0.00 80 1010.7
20260507022546 10 254 6.4 4.8 0.00 12.90 0.00 80 1010.5
20260507022138 10 116 8.0 3.2 0.00 12.90 0.00 80 1010.5
20260507021736 10 196 9.7 8.0 0.00 12.90 0.00 80 1010.4
20260507021311 10 10 3.2 1.6 0.00 12.90 0.00 80 1010.4
20260507020901 10 127 0.0 1.6 0.00 12.90 0.00 80 1010.4
20260507020501 10 209 6.4 9.7 0.00 12.90 0.00 79 1010.3
20260507020041 10 165 12.9 8.0 0.00 12.90 0.00 80 1010.3
20260507015631 10 208 3.2 4.8 0.00 12.90 0.00 80 1010.3
20260507015155 10 267 12.9 6.4 0.00 12.90 0.00 80 1010.2
20260507014726 10 215 4.8 8.0 0.00 12.90 0.00 80 1010.2
20260507014321 10 219 9.7 3.2 0.00 12.90 0.00 80 1010.2
20260507013906 10 196 14.5 12.9 0.00 12.90 0.00 80 1010.1
20260507013421 10 186 4.8 4.8 0.00 12.90 0.00 80 1010.1
20260507012936 10 206 6.4 14.5 0.00 12.90 0.00 80 1010.0
20260507012446 10 10 0.0 0.0 0.00 12.90 0.00 80 1010.0
20260507012006 10 247 0.0 0.0 0.00 12.90 0.00 80 1010.0
20260507011601 10 217 8.0 6.4 0.00 12.90 0.00 80 1010.0
20260507011108 10 206 3.2 9.7 0.00 12.90 0.00 80 1010.0
20260507010656 10 179 6.4 9.7 0.00 12.90 0.00 80 1010.0
20260507010248 10 172 4.8 11.3 0.00 12.90 0.00 80 1010.0
20260507005826 10 246 11.3 6.4 0.00 12.90 0.00 80 1010.0
20260507005348 10 250 6.4 27.4 0.00 12.90 0.00 79 1010.0
20260507004906 10 134 19.3 11.3 0.00 12.90 0.00 79 1010.0
20260507004446 10 71 0.0 0.0 0.00 12.90 0.00 80 1009.9
20260507003951 10 169 11.3 4.8 0.00 12.90 0.00 80 1009.9
20260507003548 10 175 0.0 4.8 0.00 12.90 0.00 80 1009.8
20260507003056 10 289 6.4 6.4 0.00 12.90 0.00 80 1009.8
20260507002616 10 280 0.0 3.2 0.00 12.90 0.00 80 1009.8
20260507002211 10 83 3.2 1.6 0.00 12.90 0.00 80 1009.8
20260507001746 10 109 4.8 1.6 0.00 12.90 0.00 80 1009.8
20260507001256 10 104 1.6 3.2 0.00 12.90 0.00 80 1009.8
20260507000851 10 181 1.6 3.2 0.00 12.90 0.00 80 1009.8
20260507000412 10 251 11.3 3.2 0.00 12.90 0.00 80 1009.8
20260506235936 10 288 0.0 0.0 0.00 12.90 0.00 80 1009.7
20260506235531 10 288 0.0 0.0 0.00 12.90 0.00 80 1009.8
20260506235116 10 330 0.0 3.2 0.00 12.90 0.00 80 1009.8
20260506234651 10 176 1.6 8.0 0.00 12.90 0.00 80 1009.7
20260506234226 10 213 6.4 8.0 0.00 12.90 0.00 80 1009.7
20260506233821 10 147 8.0 12.9 0.00 12.90 0.00 80 1009.7
20260506233326 10 148 9.7 9.7 0.00 12.90 0.00 81 1009.7
20260506232921 10 178 0.0 0.0 0.00 12.90 0.00 81 1009.7
20260506232508 10 152 0.0 0.0 0.00 12.90 0.00 81 1009.7
20260506232041 10 137 4.8 1.6 0.00 12.90 0.00 81 1009.7
20260506231546 10 144 4.8 0.0 0.00 12.90 0.00 81 1009.7
20260506231136 10 40 0.0 0.0 0.00 12.90 0.00 82 1009.7
20260506230706 10 217 0.0 0.0 0.00 12.90 0.00 82 1009.6
20260506230236 10 304 12.9 16.1 0.00 12.90 0.00 82 1009.7
20260506225816 10 280 1.6 9.7 0.00 12.90 0.13 82 1009.8
20260506225406 10 103 6.4 1.6 0.00 12.90 0.13 82 1009.8
20260506224928 10 258 8.0 6.4 0.00 12.90 0.13 82 1009.8
20260506224521 10 167 6.4 6.4 0.00 12.90 0.13 82 1009.8
20260506224041 10 112 3.2 0.0 0.00 12.90 0.13 82 1009.7
20260506223621 10 128 0.0 3.2 0.00 12.90 0.13 82 1009.7
20260506223126 10 288 11.3 6.4 0.00 12.90 0.13 81 1009.7
20260506222711 10 189 4.8 0.0 0.00 12.90 0.13 81 1009.7
20260506222306 10 219 9.7 0.0 0.00 12.90 0.13 81 1009.8
20260506221901 10 179 14.5 1.6 0.00 12.90 0.13 81 1009.8
20260506221416 10 257 8.0 14.5 0.00 12.90 0.13 81 1009.8
20260506220921 10 28 4.8 6.4 0.00 12.90 0.13 81 1009.7
20260506220441 10 230 12.9 11.3 0.00 12.90 0.13 81 1009.7
20260506215948 10 222 12.9 16.1 0.00 12.90 0.13 82 1009.8
20260506215501 10 198 12.9 6.4 0.00 12.90 0.13 82 1009.7
20260506215026 10 217 11.3 9.7 0.00 12.90 0.13 82 1009.6
20260506214556 10 306 6.4 9.7 0.00 12.90 0.13 82 1009.5
20260506214115 10 216 0.0 12.9 0.00 12.90 0.13 82 1009.5
20260506213636 10 199 19.3 16.1 0.00 12.90 0.13 82 1009.4
20260506213156 10 188 8.0 3.2 0.00 12.90 0.13 82 1009.4
20260506212736 10 191 8.0 9.7 0.00 12.90 0.13 82 1009.5
20260506212246 10 92 9.7 1.6 0.00 12.90 0.13 83 1009.4
20260506211828 10 154 3.2 11.3 0.00 12.90 0.13 83 1009.3
20260506211341 10 80 1.6 4.8 0.00 12.90 0.13 83 1009.3
20260506210928 10 215 3.2 20.9 0.00 12.90 0.13 83 1009.2
20260506210436 10 161 4.8 8.0 0.00 12.90 0.13 83 1009.2
20260506205941 10 234 8.0 12.9 0.00 12.90 0.13 83 1009.2
20260506205508 10 158 3.2 9.7 0.00 12.88 0.10 83 1009.2
20260506205013 10 71 3.2 0.0 0.00 12.88 0.10 83 1009.3
20260506204551 10 178 1.6 9.7 0.00 12.88 0.10 83 1009.2
20260506204138 10 162 1.6 0.0 0.00 12.88 0.10 83 1009.3
20260506203731 10 88 8.0 3.2 0.00 12.88 0.10 82 1009.2
20260506203246 10 243 11.3 12.9 0.00 12.88 0.10 82 1009.2
20260506202746 10 222 8.0 3.2 0.00 12.88 0.10 83 1009.1
20260506202326 10 7 3.2 4.8 0.00 12.88 0.10 83 1009.0
20260506201846 10 200 8.0 16.1 0.00 12.88 0.10 84 1009.0
20260506201406 11 264 1.6 20.9 0.00 12.88 0.10 84 1009.0
20260506200911 11 205 3.2 8.0 0.00 12.88 0.10 84 1009.0
20260506200441 11 185 12.9 6.4 0.00 12.88 0.10 85 1009.0
20260506195946 11 172 9.7 8.0 0.00 12.88 0.10 85 1008.9
20260506195518 11 192 11.3 9.7 0.00 12.88 0.10 85 1008.7
20260506195116 11 110 3.2 11.3 0.00 12.88 0.10 86 1008.7
20260506194621 11 222 1.6 0.0 0.00 12.88 0.10 87 1008.6
20260506194148 11 128 4.8 0.0 0.00 12.88 0.10 87 1008.5
20260506193716 11 304 8.0 0.0 0.00 12.88 0.10 87 1008.5
20260506193216 11 181 12.9 3.2 0.00 12.88 0.10 87 1008.4
20260506192726 11 263 0.0 0.0 0.00 12.88 0.10 88 1008.4
20260506192311 11 123 0.0 0.0 0.00 12.88 0.10 88 1008.2
20260506191841 11 161 0.0 0.0 0.00 12.88 0.10 88 1008.2
20260506191356 11 164 1.6 0.0 0.00 12.88 0.10 88 1008.3
20260506190908 11 155 4.8 0.0 0.00 12.88 0.10 88 1008.2
20260506190421 11 161 3.2 0.0 0.00 12.88 0.10 89 1008.1
20260506190008 11 182 1.6 0.0 0.00 12.88 0.10 89 1008.1
20260506185508 11 182 1.6 0.0 0.00 12.88 0.10 89 1008.0
20260506185106 11 226 4.8 20.9 0.00 12.88 0.10 89 1008.0
20260506184701 11 114 0.0 0.0 0.00 12.88 0.10 89 1007.9
20260506184216 11 181 9.7 6.4 0.00 12.88 0.10 89 1007.8
20260506183806 11 217 4.8 4.8 0.00 12.88 0.10 90 1007.8
20260506183401 10 116 6.4 0.0 0.00 12.88 0.10 90 1007.8
20260506182946 10 154 0.0 1.6 0.00 12.88 0.10 90 1007.7
20260506182528 10 353 4.8 0.0 0.00 12.88 0.10 90 1007.7
20260506182101 10 216 1.6 0.0 0.00 12.88 0.10 90 1007.6
20260506181628 11 232 0.0 14.5 0.00 12.88 0.10 90 1007.6
20260506181131 11 215 6.4 19.3 0.00 12.88 0.10 90 1007.6
20260506180721 11 103 0.0 0.0 0.00 12.88 0.10 90 1007.6
20260506180241 11 271 0.0 1.6 0.00 12.88 0.10 90 1007.6
20260506175818 11 182 8.0 6.4 0.00 12.88 0.10 91 1007.6
20260506175328 11 179 0.0 4.8 0.00 12.88 0.10 91 1007.6
20260506174841 11 8 9.7 0.0 0.00 12.88 0.10 91 1007.4
20260506174408 11 151 0.0 0.0 0.00 12.88 0.10 91 1007.4
20260506174006 11 151 0.0 0.0 0.00 12.88 0.10 91 1007.3
20260506173548 11 151 0.0 0.0 0.00 12.88 0.10 91 1007.3
20260506173106 11 151 0.0 0.0 0.00 12.88 0.10 92 1007.2
20260506172608 11 62 11.3 0.0 0.00 12.88 0.10 92 1007.2
20260506172116 11 158 6.4 0.0 0.00 12.88 0.10 92 1007.3
20260506171656 11 69 0.0 0.0 0.00 12.88 0.10 92 1007.2
20260506171208 11 69 0.0 0.0 0.00 12.88 0.08 92 1007.1
20260506170806 11 69 0.0 0.0 0.00 12.88 0.08 92 1007.1
20260506170321 11 69 0.0 0.0 0.00 12.88 0.08 92 1007.1
20260506165906 11 69 0.0 0.0 0.00 12.88 0.08 92 1007.1
20260506165441 11 69 4.8 0.0 0.00 12.88 0.08 92 1007.2
20260506165016 11 294 0.0 0.0 0.00 12.88 0.08 92 1007.2
20260506164611 11 217 1.6 0.0 0.00 12.88 0.08 92 1007.2
20260506164136 11 13 8.0 9.7 0.00 12.88 0.08 92 1007.2
20260506163736 11 289 8.0 11.3 0.00 12.88 0.08 91 1007.2
20260506163252 11 0 4.8 11.3 0.00 12.88 0.08 91 1007.1
20260506162811 11 13 6.4 9.7 0.00 12.88 0.08 91 1006.9
20260506162408 11 335 14.5 11.3 0.00 12.88 0.08 91 1006.9
20260506161956 11 14 14.5 4.8 0.00 12.88 0.08 91 1006.9
20260506161501 11 360 9.7 8.0 0.00 12.88 0.08 91 1006.8
20260506161040 11 254 12.9 8.0 0.00 12.88 0.08 90 1006.8
20260506160628 11 61 17.7 19.3 0.00 12.88 0.08 90 1006.8
20260506160221 11 344 4.8 0.0 0.00 12.88 0.08 90 1006.7
20260506155746 12 311 8.0 4.8 0.00 12.88 0.08 90 1006.8
20260506155326 12 326 8.0 1.6 0.00 12.88 0.08 90 1006.7
20260506154911 12 92 12.9 4.8 0.00 12.88 0.08 90 1006.7
20260506154421 12 346 9.7 8.0 0.00 12.88 0.08 90 1006.7
20260506154016 12 28 8.0 6.4 0.00 12.88 0.08 90 1006.6
20260506153606 12 306 1.6 6.4 0.00 12.88 0.08 89 1006.6
20260506153201 12 311 0.0 1.6 0.00 12.88 0.08 89 1006.6
20260506152716 12 287 6.4 4.8 0.00 12.88 0.08 89 1006.6
20260506152216 12 200 9.7 3.2 0.00 12.88 0.08 88 1006.6
20260506151801 12 265 6.4 3.2 0.00 12.88 0.08 88 1006.6
20260506151306 12 126 0.0 0.0 0.00 12.88 0.08 89 1006.5
20260506150816 12 126 0.0 0.0 0.00 12.88 0.08 89 1006.5
20260506150408 12 126 1.6 0.0 0.00 12.88 0.08 89 1006.5
20260506145956 12 174 0.0 0.0 0.00 12.88 0.08 89 1006.5
20260506145541 12 174 0.0 0.0 0.00 12.88 0.08 89 1006.5
20260506145106 12 174 0.0 0.0 0.00 12.88 0.08 89 1006.4